Location: Gajan
(43.0218°N, 1.1244°E)
Time: 20:02:11
(UTC+00:00)

ISS - Visible Passes

Search period start: 21 September 2021 00:00
Search period end: 01 October 2021 00:00
Orbit: 419 x 423 km, 51.6° (Epoch: 21 September)

Date Brightness Start Highest point End Pass type
(mag) Time Alt. Az. Time Alt. Az. Time Alt. Az.
21 Sep -1.7 19:43:59 10° WNW 19:46:44 23° NNW 19:47:52 19° NNE visible
22 Sep -1.9 18:56:44 10° W 18:59:41 27° NNW 19:02:38 10° NE visible
22 Sep -0.7 20:34:50 10° NW 20:35:48 14° NNW 20:35:48 14° NNW visible
23 Sep -1.5 19:47:43 10° NW 19:50:12 19° N 19:50:41 18° N visible
24 Sep -1.5 19:00:31 10° WNW 19:03:05 20° N 19:05:32 11° NE visible
24 Sep -0.5 20:38:02 10° NW 20:38:31 13° NW 20:38:31 13° NW visible
25 Sep -1.7 18:13:14 10° WNW 18:15:58 22° NNW 18:18:42 10° NE visible
25 Sep -1.5 19:51:05 10° NW 19:53:21 20° N 19:53:21 20° N visible
26 Sep -1.6 19:04:03 10° NW 19:06:32 19° N 19:08:10 14° NE visible
26 Sep -0.3 20:40:56 10° NW 20:41:09 11° NW 20:41:09 11° NW visible
27 Sep -1.6 18:16:56 10° NW 18:19:24 19° N 18:21:52 10° NE visible
27 Sep -1.6 19:54:05 10° NW 19:55:58 23° NNW 19:55:58 23° NNW visible
28 Sep -2.0 19:07:12 10° NW 19:09:57 23° NNE 19:10:48 20° NE visible
29 Sep -1.8 18:20:15 10° NW 18:22:50 20° N 18:25:24 10° ENE visible
29 Sep -1.7 19:56:56 10° NW 19:58:39 26° NW 19:58:39 26° NW visible
30 Sep -2.9 19:10:04 10° NW 19:13:13 36° NNE 19:13:32 35° NE visible
